Location: Ústí nad Labem
(50.6611°N, 14.0531°E)
Time: 11:46:16
(UTC+02:00)

Envisat - Pass Details

Date: 02 March 2024
Orbit: 762 x 764 km, 98.3° (Epoch: 21 April)

Event Time Altitude Azimuth Distance (km) Brightness Sun altitude
Rises 04:01:05 0° 12° (NNE) 3,244 6.7 -26.4°
Reaches altitude 10° 04:03:25 10° 10° (N) 2,314 5.8 -26.0°
Enters shadow 04:08:09 64° 312° (NW) 847 3.0 -25.3°
